DB0KS Weather Reports


Display with metric or nautical units.
time (UTC)temp
F
wind
direction
speed
MPH
gust
MPH
rain 1hr
in
rain 24hr
in
rain mn
in
humidity
%
barometer
mb
20260905080003 62 67 0.0 3.0 0.07 0.00 0.00 68 1023.1
20260905070003 60 197 4.0 12.0 0.00 0.00 0.00 74 1023.4
20260905060003 58 160 1.0 7.0 0.00 0.00 0.00 79 1024.0
20260905050003 59 157 2.0 7.0 0.00 0.00 0.00 74 1022.9
20260905040003 61 141 1.0 9.0 0.00 0.00 0.00 67 1021.6
20260905030004 64 114 1.0 5.0 0.00 0.00 0.00 60 1020.2
20260905020003 64 164 4.0 6.0 0.00 0.00 0.00 60 1020.4
20260905010003 66 173 5.0 12.0 0.00 0.00 0.00 59 1019.8
20260905000005 66 182 4.0 7.0 0.00 0.00 0.00 59 1020.0
20260904230003 66 175 4.0 15.0 0.00 0.00 0.00 60 1020.0
20260904220003 66 139 1.0 9.0 0.00 0.00 0.00 61 1020.0
20260904210003 68 39 0.0 9.0 0.00 0.00 0.00 53 1019.4
20260904200004 68 162 4.0 7.0 0.00 0.00 0.00 49 1019.3
20260904190003 68 99 1.0 7.0 0.00 0.00 0.00 48 1018.4
20260904180003 71 189 6.0 11.0 0.00 0.00 0.00 44 1017.6
20260904170003 72 292 0.0 8.0 0.00 0.00 0.00 44 1016.9
20260904160004 74 168 1.0 5.0 0.00 0.00 0.00 43 1016.1
20260904150003 75 175 2.0 5.0 0.00 0.00 0.00 43 1016.0
20260904140003 77 334 1.0 7.0 0.00 0.00 0.00 40 1015.9
20260904130003 78 172 2.0 8.0 0.00 0.00 0.00 35 1015.7
20260904120003 79 189 0.0 8.0 0.00 0.00 0.00 31 1016.2
20260904110003 77 4 0.0 6.0 0.00 0.00 0.00 35 1017.6
20260904100003 73 324 2.0 4.0 0.00 0.00 0.00 41 1019.4
20260904090003 72 48 1.0 4.0 0.00 0.00 0.00 39 1020.3